Location: Meanaryar
(48.4161°N, 4.7315°W)
Time: 08:00:42
(UTC+00:00)

Cosmos 1092 Rocket - Pass Details

Date: 26 January 2021
Orbit: 954 x 995 km, 83.0° (Epoch: 02 March)

Event Time Altitude Azimuth Distance (km) Brightness Sun altitude
Rises 17:38:06 0° 155° (SSE) 3,644 7.0 -5.3°
Reaches altitude 10° 17:40:51 10° 146° (SE) 2,697 6.2 -5.7°
Maximum altitude 17:46:11 32° 86° (E) 1,592 4.7 -6.5°
Drops below altitude 10° 17:51:31 10° 26° (NNE) 2,697 5.9 -7.4°
Sets 17:54:15 0° 17° (NNE) 3,645 6.6 -7.8°
